Date,Time,Wetness (Wet Dry or Ice),Wind Speed (m/s),Temperature (C),Humidity (%),Pressure (mb),Radiation (W/m^2)
2019-10-07,04:35:00,DRY,2.50,14.15,17.0,775.00,2.5
2019-10-07,04:40:00,DRY,2.83,14.37,15.0,775.00,1.4
2019-10-07,04:45:00,DRY,3.80,14.60,14.0,775.00,1.4
2019-10-07,04:50:00,DRY,1.90,14.53,14.7,775.00,1.3
2019-10-07,04:55:00,DRY,3.65,14.45,15.5,775.00,1.6
2019-10-07,05:00:00,DRY,3.47,14.33,16.0,775.00,1.5
2019-10-07,05:05:00,DRY,4.25,14.25,16.0,775.00,1.6
2019-10-07,05:10:00,DRY,3.37,14.27,17.0,775.00,0.6
2019-10-07,05:15:00,DRY,3.70,14.15,17.0,775.00,1.6
2019-10-07,05:20:00,DRY,3.50,14.17,17.0,775.00,1.4
2019-10-07,05:25:00,DRY,3.25,14.30,16.5,775.00,1.2
2019-10-07,05:30:00,DRY,1.97,14.37,16.3,775.00,0.8
2019-10-07,05:35:00,DRY,2.10,14.60,16.0,775.00,1.5
2019-10-07,05:40:00,DRY,3.07,14.40,16.0,775.00,1.0
2019-10-07,05:45:00,DRY,2.45,14.50,16.0,775.00,0.8
2019-10-07,05:50:00,DRY,2.07,14.40,15.3,775.00,1.0
2019-10-07,05:55:00,DRY,2.55,14.40,15.5,775.00,1.7
2019-10-07,06:00:00,DRY,1.83,14.43,15.0,775.00,1.0
2019-10-07,06:05:00,DRY,2.05,14.30,15.0,775.00,1.9
2019-10-07,06:10:00,DRY,1.83,14.43,15.0,775.00,1.8
2019-10-07,06:15:00,DRY,2.50,14.50,15.0,775.00,1.2
2019-10-07,06:20:00,DRY,2.60,14.50,14.3,775.00,1.1
2019-10-07,06:25:00,DRY,2.80,14.55,14.0,775.00,1.5
2019-10-07,06:30:00,DRY,2.47,14.50,14.0,775.33,1.1
2019-10-07,06:35:00,DRY,3.35,14.60,14.0,775.50,1.5
2019-10-07,06:40:00,DRY,3.00,14.43,14.0,776.00,1.3
2019-10-07,06:45:00,DRY,2.80,14.40,14.0,776.00,1.6
2019-10-07,06:50:00,DRY,2.43,14.40,14.0,776.00,1.5
2019-10-07,06:55:00,DRY,2.40,14.40,14.0,776.00,2.5
2019-10-07,07:00:00,DRY,2.37,14.37,14.0,776.00,4.2
2019-10-07,07:05:00,DRY,2.35,14.40,14.0,776.00,6.2
2019-10-07,07:10:00,DRY,2.63,14.40,14.0,776.00,9.0
2019-10-07,07:15:00,DRY,2.70,14.50,14.0,776.00,12.3
2019-10-07,07:20:00,DRY,2.83,14.37,14.0,776.00,15.3
2019-10-07,07:25:00,DRY,3.05,14.40,14.0,776.00,18.4
2019-10-07,07:30:00,DRY,2.93,14.53,14.0,776.00,20.5
2019-10-07,07:35:00,DRY,2.65,14.50,14.0,776.00,22.9
2019-10-07,07:40:00,DRY,3.30,14.57,14.0,776.00,25.0
2019-10-07,07:45:00,DRY,2.65,14.65,14.0,776.00,27.8
2019-10-07,07:50:00,DRY,3.87,14.67,14.0,776.00,28.7
2019-10-07,07:55:00,DRY,2.55,14.75,14.0,776.00,31.4
2019-10-07,08:00:00,DRY,3.57,14.77,14.0,776.00,32.8
2019-10-07,08:05:00,DRY,1.95,14.90,14.0,776.00,35.2
2019-10-07,08:10:00,DRY,2.27,15.10,14.0,776.00,166.7
2019-10-07,08:15:00,DRY,2.25,15.25,13.5,776.00,273.8
2019-10-07,08:20:00,DRY,2.30,15.27,12.3,776.00,296.2
2019-10-07,08:25:00,DRY,2.00,15.60,12.5,776.00,317.4
2019-10-07,08:30:00,DRY,2.77,15.73,13.0,776.00,338.7
2019-10-07,08:35:00,DRY,1.55,15.75,13.0,776.00,360.0
2019-10-07,08:40:00,DRY,1.93,15.87,13.0,776.00,381.6
2019-10-07,08:45:00,DRY,2.40,15.90,12.5,776.00,403.0
2019-10-07,08:50:00,DRY,3.70,16.00,13.0,776.00,423.8
2019-10-07,08:55:00,DRY,1.60,16.00,13.0,776.00,445.4
2019-10-07,09:00:00,DRY,1.93,16.07,13.0,776.00,465.4
2019-10-07,09:05:00,DRY,1.05,16.20,13.0,776.00,485.9
2019-10-07,09:10:00,DRY,1.80,16.13,13.0,776.00,506.0
2019-10-07,09:15:00,DRY,2.30,16.20,13.5,776.00,527.0
2019-10-07,09:20:00,DRY,1.43,16.33,14.0,776.00,546.3
2019-10-07,09:25:00,DRY,1.10,16.35,13.0,776.00,566.1
2019-10-07,09:30:00,DRY,1.63,16.33,13.0,776.00,583.5
2019-10-07,09:35:00,DRY,2.20,16.20,14.0,776.00,604.0
2019-10-07,09:40:00,DRY,1.90,16.50,13.3,776.00,621.0
2019-10-07,09:45:00,DRY,1.50,16.45,13.0,776.00,638.5
2019-10-07,09:50:00,DRY,2.20,16.57,13.0,776.00,655.5
2019-10-07,09:55:00,DRY,1.15,16.85,13.0,776.00,672.5
2019-10-07,10:00:00,DRY,0.70,17.00,13.3,776.00,689.8
2019-10-07,10:05:00,DRY,1.00,17.70,13.0,776.00,706.6
2019-10-07,10:10:00,DRY,1.23,17.50,12.7,776.00,722.5
2019-10-07,10:15:00,DRY,1.80,17.50,12.5,776.00,738.2
2019-10-07,10:20:00,DRY,1.37,18.00,13.0,776.00,753.2
2019-10-07,10:25:00,DRY,1.60,18.00,13.5,776.00,767.0
2019-10-07,10:30:00,DRY,0.65,18.15,11.0,776.00,780.9
2019-10-07,10:35:00,DRY,2.35,17.70,11.5,776.00,791.8
2019-10-07,10:40:00,DRY,1.70,17.77,12.7,776.00,806.7
2019-10-07,10:45:00,DRY,1.10,17.80,13.0,776.00,818.5
2019-10-07,10:50:00,DRY,1.43,18.30,12.0,776.00,831.9
2019-10-07,10:55:00,DRY,1.70,18.55,13.0,776.00,842.8
2019-10-07,11:00:00,DRY,1.50,18.50,12.0,776.00,854.8
2019-10-07,11:05:00,DRY,1.90,18.80,11.5,776.00,866.0
2019-10-07,11:10:00,DRY,1.67,18.57,11.7,776.00,875.9
2019-10-07,11:15:00,DRY,1.15,18.35,12.5,776.00,886.5
2019-10-07,11:20:00,DRY,0.70,18.30,12.3,776.00,898.2
2019-10-07,11:25:00,DRY,2.90,18.50,13.5,776.00,905.0
2019-10-07,11:30:00,DRY,2.50,18.67,13.0,776.00,911.4
2019-10-07,11:35:00,DRY,2.35,18.45,16.5,776.00,919.4
2019-10-07,11:40:00,DRY,1.47,18.73,14.3,776.00,928.4
2019-10-07,11:45:00,DRY,1.35,18.35,14.5,776.00,934.9
2019-10-07,11:50:00,DRY,1.87,18.23,13.7,776.00,942.7
2019-10-07,11:55:00,DRY,1.25,18.40,14.0,776.00,946.4
2019-10-07,12:00:00,DRY,1.40,18.40,13.7,776.00,954.1
2019-10-07,12:05:00,DRY,1.50,18.05,15.5,776.00,957.7
2019-10-07,12:10:00,DRY,1.53,18.37,16.3,776.00,962.8
2019-10-07,12:15:00,DRY,1.05,18.25,15.5,776.00,970.5
2019-10-07,12:20:00,DRY,2.30,18.03,16.7,776.00,971.9
2019-10-07,12:25:00,DRY,1.20,17.70,18.5,776.00,976.7
2019-10-07,12:30:00,DRY,1.30,17.63,21.7,776.00,978.3
2019-10-07,12:35:00,DRY,2.10,17.80,20.0,776.00,979.8
2019-10-07,12:40:00,DRY,1.30,17.03,22.3,776.00,979.8
2019-10-07,12:45:00,DRY,0.70,17.00,27.5,776.00,983.8
2019-10-07,12:50:00,DRY,1.87,17.23,27.7,776.00,984.3
2019-10-07,12:55:00,DRY,0.80,17.20,30.0,776.00,982.2
2019-10-07,13:00:00,DRY,0.97,17.77,28.7,776.00,984.2
2019-10-07,13:05:00,DRY,1.75,18.45,27.5,776.00,984.1
2019-10-07,13:10:00,DRY,2.43,16.83,33.0,776.00,979.6
2019-10-07,13:15:00,DRY,3.45,16.35,32.5,776.00,974.2
2019-10-07,13:20:00,DRY,3.10,16.27,32.7,776.00,972.7
2019-10-07,13:25:00,DRY,1.95,16.75,30.0,776.00,969.8
2019-10-07,13:30:00,DRY,2.50,16.90,27.0,776.00,966.1
2019-10-07,13:35:00,DRY,2.30,16.60,29.0,776.00,959.7
2019-10-07,13:40:00,DRY,2.23,17.17,29.7,776.00,950.3
2019-10-07,13:45:00,DRY,1.15,17.40,32.0,776.00,944.7
2019-10-07,13:50:00,DRY,2.93,17.10,32.3,776.00,940.3
2019-10-07,13:55:00,DRY,1.50,17.50,31.5,776.00,938.0
2019-10-07,14:00:00,DRY,2.00,17.50,32.0,776.00,935.5
2019-10-07,14:05:00,DRY,2.15,17.50,34.0,776.00,927.7
2019-10-07,14:10:00,DRY,1.70,17.20,36.7,776.00,927.0
2019-10-07,14:15:00,DRY,3.75,16.65,35.0,776.00,915.5
2019-10-07,14:20:00,DRY,1.73,16.83,33.3,776.00,900.0
2019-10-07,14:25:00,DRY,2.80,16.70,35.5,776.00,892.1
2019-10-07,14:30:00,DRY,0.93,17.17,36.3,775.33,883.9
2019-10-07,14:35:00,DRY,1.75,17.60,36.0,775.00,882.1
2019-10-07,14:40:00,DRY,1.47,16.97,36.3,775.00,868.6
2019-10-07,14:45:00,DRY,2.60,16.85,34.5,775.00,861.5
2019-10-07,14:50:00,DRY,3.03,17.20,34.7,775.00,848.5
2019-10-07,14:55:00,DRY,2.20,17.15,34.0,775.00,839.5
2019-10-07,15:00:00,DRY,1.73,17.23,34.7,775.00,828.4
2019-10-07,15:05:00,DRY,2.40,17.75,31.5,775.00,813.4
2019-10-07,15:10:00,DRY,1.43,16.73,33.7,775.33,801.2
2019-10-07,15:15:00,DRY,1.55,16.65,34.0,775.00,787.7
2019-10-07,15:20:00,DRY,1.87,16.90,33.7,775.00,771.5
2019-10-07,15:25:00,DRY,1.85,17.30,34.0,775.00,757.9
2019-10-07,15:30:00,DRY,1.87,16.57,35.3,775.00,739.6
2019-10-07,15:35:00,DRY,2.00,17.50,35.5,775.00,725.0
2019-10-07,15:40:00,DRY,1.50,16.70,36.7,775.00,709.2
2019-10-07,15:45:00,DRY,1.40,17.40,31.0,775.00,697.9
2019-10-07,15:50:00,DRY,1.13,16.80,34.3,775.00,684.8
2019-10-07,15:55:00,DRY,1.80,16.70,37.0,775.00,665.5
2019-10-07,16:00:00,DRY,1.03,16.17,38.3,775.33,651.6
2019-10-07,16:05:00,DRY,1.40,16.45,37.5,775.00,632.8
2019-10-07,16:10:00,DRY,1.07,17.00,35.0,775.00,617.9
2019-10-07,16:15:00,DRY,1.00,17.60,35.5,775.00,601.1
2019-10-07,16:20:00,DRY,2.00,18.30,32.7,775.00,581.5
2019-10-07,16:25:00,DRY,1.60,17.65,32.5,775.00,567.6
2019-10-07,16:30:00,DRY,0.63,18.10,30.7,775.00,547.3
2019-10-07,16:35:00,DRY,1.30,18.70,20.0,775.00,532.1
2019-10-07,16:40:00,DRY,1.20,18.90,23.3,775.00,511.1
2019-10-07,16:45:00,DRY,1.15,18.80,18.5,775.00,492.6
2019-10-07,16:50:00,DRY,2.13,18.70,18.3,775.00,468.2
2019-10-07,16:55:00,DRY,0.95,18.65,23.0,775.00,450.9
2019-10-07,17:00:00,DRY,1.67,18.43,22.3,775.00,427.4
2019-10-07,17:05:00,DRY,1.65,18.70,24.5,775.00,408.5
2019-10-07,17:10:00,DRY,2.57,18.67,15.3,775.00,388.1
2019-10-07,17:15:00,DRY,1.20,18.50,21.0,775.00,367.8
2019-10-07,17:20:00,DRY,1.70,18.20,18.7,775.00,344.9
2019-10-07,17:25:00,DRY,1.65,18.45,15.0,775.00,323.8
2019-10-07,17:30:00,DRY,1.53,17.83,26.0,775.00,300.7
2019-10-07,17:35:00,DRY,2.10,17.25,31.5,775.00,279.0
2019-10-07,17:40:00,DRY,1.40,17.13,28.7,775.00,257.4
2019-10-07,17:45:00,DRY,1.25,17.35,34.5,775.00,235.8
2019-10-07,17:50:00,DRY,1.47,17.00,31.7,775.00,214.4
2019-10-07,17:55:00,DRY,1.70,17.20,25.0,775.00,193.9
2019-10-07,18:00:00,DRY,1.20,16.80,28.0,775.00,174.6
2019-10-07,18:05:00,DRY,1.55,17.00,27.5,775.00,154.8
2019-10-07,18:10:00,DRY,1.13,16.27,30.3,775.00,135.4
2019-10-07,18:15:00,DRY,0.95,15.95,28.5,775.00,111.9
2019-10-07,18:20:00,DRY,1.20,16.07,28.7,775.00,34.6
2019-10-07,18:25:00,DRY,1.20,16.00,29.5,775.00,24.4
2019-10-07,18:30:00,DRY,2.00,16.13,23.0,775.00,21.7
2019-10-07,18:35:00,DRY,2.30,16.30,20.0,775.00,18.7
2019-10-07,18:40:00,DRY,3.40,16.37,16.7,775.00,15.2
2019-10-07,18:45:00,DRY,3.30,16.25,14.0,775.00,11.8
2019-10-07,18:50:00,DRY,4.13,16.37,11.3,775.00,9.6
2019-10-07,18:55:00,DRY,3.85,16.35,11.0,775.50,6.1
2019-10-07,19:00:00,DRY,4.47,16.33,10.7,775.00,3.9
2019-10-07,19:05:00,DRY,3.95,16.20,11.0,775.50,3.4
2019-10-07,19:10:00,DRY,3.63,15.93,13.0,775.33,1.6
2019-10-07,19:15:00,DRY,3.70,16.15,11.0,775.00,1.2
2019-10-07,19:20:00,DRY,4.60,16.17,9.7,775.67,1.3
2019-10-07,19:25:00,DRY,2.25,16.15,9.5,776.00,0.8
2019-10-07,19:30:00,DRY,3.93,16.10,9.0,776.00,1.4
2019-10-07,19:35:00,DRY,2.65,16.15,9.0,776.00,1.6
2019-10-07,19:40:00,DRY,2.63,16.17,8.7,776.00,1.6
2019-10-07,19:45:00,DRY,3.70,16.15,9.5,776.00,1.3
2019-10-07,19:50:00,DRY,3.57,16.17,8.7,776.00,1.4
2019-10-07,19:55:00,DRY,3.20,16.05,8.0,776.00,1.1
2019-10-07,20:00:00,DRY,2.83,15.97,8.0,776.00,1.2
2019-10-07,20:05:00,DRY,2.60,15.95,8.0,776.00,0.9
2019-10-07,20:10:00,DRY,3.43,16.07,8.0,776.00,0.9
2019-10-07,20:15:00,DRY,2.95,16.10,8.0,776.00,1.9
2019-10-07,20:20:00,DRY,3.73,16.13,9.0,776.00,1.1
2019-10-07,20:25:00,DRY,3.10,16.00,9.5,776.00,1.3
2019-10-07,20:30:00,DRY,3.67,16.00,8.0,776.00,1.6
2019-10-07,20:35:00,DRY,2.75,16.05,8.0,776.00,2.0
2019-10-07,20:40:00,DRY,4.53,16.07,8.0,776.00,1.3
2019-10-07,20:45:00,DRY,3.20,16.10,8.5,776.00,1.6
2019-10-07,20:50:00,DRY,2.87,16.17,8.3,776.00,1.3
2019-10-07,20:55:00,DRY,2.95,16.00,8.0,776.00,1.2
2019-10-07,21:00:00,DRY,2.73,15.93,8.3,776.00,0.7
2019-10-07,21:05:00,DRY,4.30,16.05,9.0,776.00,0.9
2019-10-07,21:10:00,DRY,3.87,16.13,10.0,776.00,1.5
2019-10-07,21:15:00,DRY,3.85,16.25,11.0,776.00,0.8
2019-10-07,21:20:00,DRY,3.37,16.07,9.3,776.00,1.3
2019-10-07,21:25:00,DRY,4.25,16.05,9.0,776.00,1.1
2019-10-07,21:30:00,DRY,2.30,16.07,9.0,776.00,1.5
2019-10-07,21:35:00,DRY,2.50,15.95,9.0,776.00,1.6
2019-10-07,21:40:00,DRY,1.50,15.90,9.0,776.00,1.2
2019-10-07,21:45:00,DRY,2.20,15.80,9.0,776.00,1.9
2019-10-07,21:50:00,DRY,3.20,15.87,9.0,777.00,1.6
2019-10-07,21:55:00,DRY,2.95,15.85,9.0,777.00,1.5
2019-10-07,22:00:00,DRY,3.70,15.83,9.0,777.00,0.8
2019-10-07,22:05:00,DRY,3.45,16.00,9.5,776.50,1.5
2019-10-07,22:10:00,DRY,3.40,15.77,10.0,777.00,1.3
2019-10-07,22:15:00,DRY,3.70,15.65,9.5,777.00,1.6
2019-10-07,22:20:00,DRY,3.93,15.60,9.3,777.00,1.1
2019-10-07,22:25:00,DRY,4.90,15.70,9.0,777.00,1.5
2019-10-07,22:30:00,DRY,3.90,15.67,9.0,777.00,1.4
2019-10-07,22:35:00,DRY,4.95,15.55,10.0,777.00,1.1
2019-10-07,22:40:00,DRY,4.43,15.60,10.0,776.67,1.3
2019-10-07,22:45:00,DRY,4.65,15.85,10.0,776.50,1.5
2019-10-07,22:50:00,DRY,4.43,15.83,10.0,777.00,1.3
2019-10-07,22:55:00,DRY,4.45,15.85,10.0,776.50,1.0
2019-10-07,23:00:00,DRY,5.53,15.80,10.3,777.00,1.2
2019-10-07,23:05:00,DRY,5.20,15.85,10.0,777.00,0.8
2019-10-07,23:10:00,DRY,5.25,15.80,10.5,777.00,0.9
2019-10-07,23:15:00,DRY,5.40,16.05,10.0,776.50,1.1
2019-10-07,23:20:00,DRY,5.33,15.93,11.7,776.33,1.4
2019-10-07,23:25:00,DRY,7.50,16.05,12.5,776.00,1.2
2019-10-07,23:30:00,DRY,5.47,16.03,11.7,776.67,1.1
2019-10-07,23:35:00,DRY,6.80,16.05,12.0,776.50,1.2
2019-10-07,23:40:00,DRY,5.63,16.00,13.0,776.00,1.5
2019-10-07,23:45:00,DRY,5.05,16.05,13.0,776.00,1.4
2019-10-07,23:50:00,DRY,5.93,16.00,12.7,776.00,1.4
2019-10-07,23:55:00,DRY,6.25,16.00,12.5,776.00,0.9
2019-10-08,00:00:00,DRY,4.93,15.80,11.7,776.00,0.7
2019-10-08,00:05:00,DRY,5.75,15.65,11.5,776.00,1.1
2019-10-08,00:10:00,DRY,5.53,15.73,11.0,776.00,1.4
2019-10-08,00:15:00,DRY,4.60,15.60,11.5,776.00,1.3
2019-10-08,00:20:00,DRY,5.90,15.73,12.0,776.00,2.5
2019-10-08,00:25:00,DRY,4.00,15.55,12.0,776.00,1.9
2019-10-08,00:30:00,DRY,6.87,15.60,12.3,776.00,1.4
2019-10-08,00:35:00,DRY,6.85,15.85,13.0,776.00,1.2
2019-10-08,00:40:00,DRY,6.40,15.73,13.3,776.00,2.0
2019-10-08,00:45:00,DRY,5.90,15.70,13.5,776.00,1.4
2019-10-08,00:50:00,DRY,5.33,15.77,14.3,776.00,1.3
2019-10-08,00:55:00,DRY,5.50,15.70,15.0,776.00,1.4
2019-10-08,01:00:00,DRY,6.43,15.70,15.0,776.00,1.6
2019-10-08,01:05:00,DRY,7.85,15.70,16.0,776.00,1.3
2019-10-08,01:10:00,DRY,5.67,15.77,15.7,776.00,1.3
2019-10-08,01:15:00,DRY,7.20,15.70,16.5,776.00,1.1
2019-10-08,01:20:00,DRY,6.47,15.70,16.3,776.00,1.3
2019-10-08,01:25:00,DRY,5.70,15.60,16.0,776.00,1.2
2019-10-08,01:30:00,DRY,6.60,15.60,17.0,776.00,1.0
2019-10-08,01:35:00,DRY,6.75,15.65,16.5,776.00,1.2
2019-10-08,01:40:00,DRY,6.37,15.60,18.0,776.00,1.3
2019-10-08,01:45:00,DRY,6.40,15.65,18.5,776.00,1.5
2019-10-08,01:50:00,DRY,5.87,15.63,18.3,776.00,1.4
2019-10-08,01:55:00,DRY,6.70,15.55,18.5,776.00,1.7
2019-10-08,02:00:00,DRY,7.87,15.53,19.0,776.00,1.3
2019-10-08,02:05:00,DRY,6.40,15.50,18.5,776.00,1.4
2019-10-08,02:10:00,DRY,6.27,15.43,18.7,776.00,1.3
2019-10-08,02:15:00,DRY,6.90,15.45,19.5,776.00,2.4
2019-10-08,02:20:00,DRY,7.07,15.43,19.3,776.00,1.3
2019-10-08,02:25:00,DRY,8.00,15.40,20.0,776.00,1.2
2019-10-08,02:30:00,DRY,6.00,15.40,19.7,776.00,1.3
2019-10-08,02:35:00,DRY,7.10,15.40,19.5,776.00,1.2
2019-10-08,02:40:00,DRY,6.53,15.40,19.7,776.00,1.6
2019-10-08,02:45:00,DRY,7.60,15.35,19.0,775.50,1.3
2019-10-08,02:50:00,DRY,7.60,15.37,18.3,776.00,1.0
2019-10-08,02:55:00,DRY,5.60,15.30,18.0,776.00,1.2
2019-10-08,03:00:00,DRY,7.20,15.30,18.3,776.00,1.4
2019-10-08,03:05:00,DRY,8.20,15.30,19.5,776.00,1.3
2019-10-08,03:10:00,DRY,8.17,15.33,19.0,775.67,1.6
2019-10-08,03:15:00,DRY,6.20,15.30,18.0,775.50,1.5
2019-10-08,03:20:00,DRY,7.07,15.27,19.0,775.67,1.3
2019-10-08,03:25:00,DRY,7.40,15.25,19.0,776.00,1.3
2019-10-08,03:30:00,DRY,7.83,15.27,18.3,776.00,1.5
2019-10-08,03:35:00,DRY,7.30,15.25,18.0,776.00,1.4
2019-10-08,03:40:00,DRY,6.77,15.27,18.0,776.00,1.3
2019-10-08,03:45:00,DRY,7.65,15.30,18.0,776.00,1.5
2019-10-08,03:50:00,DRY,7.30,15.23,18.0,776.00,2.0
2019-10-08,03:55:00,DRY,6.05,15.25,17.0,776.00,1.7
2019-10-08,04:00:00,DRY,6.80,15.20,17.0,776.00,1.5
2019-10-08,04:05:00,DRY,6.50,15.25,16.0,775.50,1.6
2019-10-08,04:10:00,DRY,5.70,15.23,16.0,775.67,1.6
2019-10-08,04:15:00,DRY,6.95,15.15,16.5,775.50,1.1
2019-10-08,04:20:00,DRY,6.63,15.17,16.3,775.33,1.4
2019-10-08,04:25:00,DRY,5.30,15.25,16.5,775.00,1.3
2019-10-08,04:30:00,DRY,6.23,15.23,16.7,775.00,1.2
2019-10-08,04:35:00,DRY,8.75,15.45,16.5,775.00,1.2
2019-10-08,04:40:00,DRY,6.63,15.43,17.0,775.33,1.4
2019-10-08,04:45:00,DRY,6.75,15.35,17.0,775.00,1.4
2019-10-08,04:50:00,DRY,7.17,15.33,17.3,775.67,1.3
2019-10-08,04:55:00,DRY,7.45,15.30,17.0,775.00,1.5
2019-10-08,05:00:00,DRY,7.93,15.23,17.0,776.00,1.2
2019-10-08,05:05:00,DRY,7.30,15.20,16.5,776.00,1.1
2019-10-08,05:10:00,DRY,7.27,15.17,17.0,775.67,1.0
2019-10-08,05:15:00,DRY,6.65,15.20,17.0,775.50,1.3
2019-10-08,05:20:00,DRY,7.97,15.20,16.7,775.33,1.3
2019-10-08,05:25:00,DRY,8.65,15.15,16.0,775.00,1.5
2019-10-08,05:30:00,DRY,7.37,15.20,16.0,775.33,1.5
2019-10-08,05:35:00,DRY,8.05,15.10,16.0,776.00,1.9
2019-10-08,05:40:00,DRY,7.73,15.13,16.0,776.00,1.2
2019-10-08,05:45:00,DRY,7.20,15.00,16.5,775.50,0.9
2019-10-08,05:50:00,DRY,7.37,15.07,16.3,776.00,1.7
2019-10-08,05:55:00,DRY,9.75,14.95,16.0,776.00,1.1
2019-10-08,06:00:00,DRY,8.30,14.90,16.7,775.67,1.6
2019-10-08,06:05:00,DRY,7.00,14.90,17.5,776.00,1.2
2019-10-08,06:10:00,DRY,7.80,14.83,17.0,776.00,1.1
2019-10-08,06:15:00,DRY,8.80,14.80,17.5,776.00,3.6
2019-10-08,06:20:00,DRY,7.50,14.80,17.0,776.00,1.5
2019-10-08,06:25:00,DRY,6.00,14.80,17.0,776.00,1.6
2019-10-08,06:30:00,DRY,7.17,14.80,17.3,776.00,1.0
2019-10-08,06:35:00,DRY,7.55,14.80,18.0,776.00,0.9
2019-10-08,06:40:00,DRY,6.63,14.70,18.7,776.00,1.3
2019-10-08,06:45:00,DRY,7.40,14.70,20.0,776.00,0.9
2019-10-08,06:50:00,DRY,6.07,14.70,20.0,776.00,1.8
2019-10-08,06:55:00,DRY,8.10,14.65,21.0,776.00,2.6
2019-10-08,07:00:00,DRY,6.53,14.63,21.3,776.00,4.1
2019-10-08,07:05:00,DRY,4.65,14.60,21.0,776.00,6.0
2019-10-08,07:10:00,DRY,6.47,14.60,21.7,776.00,9.0
2019-10-08,07:15:00,DRY,7.95,14.60,22.0,776.00,14.1
2019-10-08,07:20:00,DRY,7.03,14.60,23.0,776.00,19.1
2019-10-08,07:25:00,DRY,8.30,14.60,23.0,776.00,24.3
2019-10-08,07:30:00,DRY,6.83,14.60,23.0,776.00,28.8
2019-10-08,07:35:00,DRY,7.15,14.55,23.0,776.00,33.0
2019-10-08,07:40:00,DRY,5.50,14.53,23.0,776.00,36.7
2019-10-08,07:45:00,DRY,5.05,14.60,23.0,776.00,40.6
2019-10-08,07:50:00,DRY,7.33,14.67,23.0,776.00,44.2
2019-10-08,07:55:00,DRY,7.10,14.70,23.0,776.00,47.5
2019-10-08,08:00:00,DRY,6.40,14.73,23.0,776.00,51.5
2019-10-08,08:05:00,DRY,4.85,14.80,23.0,776.00,55.6
2019-10-08,08:10:00,DRY,6.10,14.83,22.0,776.00,146.4
2019-10-08,08:15:00,DRY,7.05,15.00,22.0,776.00,245.8
2019-10-08,08:20:00,DRY,5.40,15.03,21.7,776.00,270.5
2019-10-08,08:25:00,DRY,7.00,15.20,21.0,776.00,292.9
2019-10-08,08:30:00,DRY,5.63,15.20,21.0,776.00,315.2
2019-10-08,08:35:00,DRY,7.35,15.25,20.0,776.00,339.5
2019-10-08,08:40:00,DRY,6.47,15.30,20.0,776.33,360.4
2019-10-08,08:45:00,DRY,3.60,15.45,19.5,776.50,381.1
2019-10-08,08:50:00,DRY,6.20,15.50,19.0,777.00,398.4
2019-10-08,08:55:00,DRY,5.65,15.45,19.0,776.50,423.2
2019-10-08,09:00:00,DRY,6.63,15.57,18.7,777.00,445.1
2019-10-08,09:05:00,DRY,3.90,15.70,18.5,776.50,464.5
2019-10-08,09:10:00,DRY,5.33,15.77,18.0,777.00,486.4
2019-10-08,09:15:00,DRY,4.05,15.95,17.5,777.00,506.1
2019-10-08,09:20:00,DRY,3.87,16.07,17.3,777.00,525.3
2019-10-08,09:25:00,DRY,2.85,16.20,17.5,777.00,543.3
2019-10-08,09:30:00,DRY,3.80,16.23,17.0,777.00,563.9
2019-10-08,09:35:00,DRY,4.90,16.40,17.0,777.00,580.8
2019-10-08,09:40:00,DRY,4.63,16.53,17.3,777.00,598.8
2019-10-08,09:45:00,DRY,4.40,16.50,17.0,777.00,615.0
2019-10-08,09:50:00,DRY,4.17,16.73,16.3,777.00,634.4
2019-10-08,09:55:00,DRY,2.65,16.80,16.0,777.00,650.2
2019-10-08,10:00:00,DRY,3.73,16.93,17.0,777.00,665.7
2019-10-08,10:05:00,DRY,3.65,17.10,16.0,777.00,684.2
2019-10-08,10:10:00,DRY,4.23,17.13,16.0,777.00,698.9
2019-10-08,10:15:00,DRY,3.40,17.15,15.5,777.00,715.7
2019-10-08,10:20:00,DRY,4.53,17.23,17.7,777.00,729.5
2019-10-08,10:25:00,DRY,4.75,17.35,19.0,777.00,744.2
2019-10-08,10:30:00,DRY,3.27,17.53,18.0,777.00,756.2
2019-10-08,10:35:00,DRY,4.35,17.65,17.0,777.00,769.2
2019-10-08,10:40:00,DRY,4.97,17.53,17.0,777.00,782.4
2019-10-08,10:45:00,DRY,3.90,17.60,17.5,777.00,794.9
2019-10-08,10:50:00,DRY,3.70,17.60,18.0,777.00,808.9
2019-10-08,10:55:00,DRY,6.70,17.50,17.5,777.00,816.1
2019-10-08,11:00:00,DRY,4.40,17.70,18.3,777.00,829.5
2019-10-08,11:05:00,DRY,4.45,18.00,19.0,777.00,840.3
2019-10-08,11:10:00,DRY,3.27,18.33,18.3,777.00,848.8
2019-10-08,11:15:00,DRY,2.75,18.20,18.0,777.00,866.1
2019-10-08,11:20:00,DRY,4.93,17.97,20.3,776.67,870.3
2019-10-08,11:25:00,DRY,5.40,18.05,19.0,777.00,878.0
2019-10-08,11:30:00,DRY,4.53,18.00,19.0,777.00,888.3
2019-10-08,11:35:00,DRY,2.95,18.20,18.5,777.00,898.4
2019-10-08,11:40:00,DRY,5.70,18.20,20.5,777.00,905.1
2019-10-08,11:45:00,DRY,3.95,18.25,19.0,777.00,911.8
2019-10-08,11:50:00,DRY,3.50,18.10,18.3,776.67,920.7
2019-10-08,11:55:00,DRY,3.45,18.60,18.0,777.00,921.9
2019-10-08,12:00:00,DRY,2.73,18.47,18.0,777.00,930.4
2019-10-08,12:05:00,DRY,1.85,18.80,17.5,777.00,939.0
2019-10-08,12:10:00,DRY,3.60,18.77,17.7,777.00,941.1
2019-10-08,12:15:00,DRY,3.20,18.45,18.5,776.50,943.4
2019-10-08,12:20:00,DRY,3.17,18.50,18.3,776.33,947.7
2019-10-08,12:25:00,DRY,2.30,18.35,18.0,776.00,949.7
2019-10-08,12:30:00,DRY,4.53,18.57,18.7,776.33,955.2
2019-10-08,12:35:00,DRY,4.35,18.25,19.5,776.00,958.5
2019-10-08,12:40:00,DRY,4.83,18.10,19.0,776.00,958.9
2019-10-08,12:45:00,DRY,4.00,18.55,18.0,776.00,960.5
2019-10-08,12:50:00,DRY,5.03,18.67,17.3,776.00,960.0
2019-10-08,12:55:00,DRY,4.80,18.50,18.0,776.00,961.0
2019-10-08,13:00:00,DRY,2.10,18.73,17.7,776.00,962.2
2019-10-08,13:05:00,DRY,3.30,18.70,17.5,776.00,962.5
2019-10-08,13:10:00,DRY,3.17,18.70,18.0,776.00,962.0
2019-10-08,13:15:00,DRY,3.75,18.80,18.0,776.00,959.6
2019-10-08,13:20:00,DRY,2.40,18.80,18.0,776.00,957.9
2019-10-08,13:25:00,DRY,4.35,18.95,18.5,776.00,958.4
2019-10-08,13:30:00,DRY,4.50,18.40,17.0,776.00,955.4
2019-10-08,13:35:00,DRY,5.10,18.90,16.0,776.00,950.4
2019-10-08,13:40:00,DRY,2.40,19.27,16.7,776.00,943.7
2019-10-08,13:45:00,DRY,3.15,19.05,16.5,776.00,941.5
2019-10-08,13:50:00,DRY,3.43,18.77,16.0,776.00,937.2
2019-10-08,13:55:00,DRY,2.90,18.70,17.5,776.00,929.8
2019-10-08,14:00:00,DRY,1.63,18.57,18.0,776.00,923.3
2019-10-08,14:05:00,DRY,2.65,18.90,17.5,776.00,917.9
2019-10-08,14:10:00,DRY,3.37,18.33,18.7,776.00,909.8
2019-10-08,14:15:00,DRY,2.60,18.55,18.5,776.00,902.4
2019-10-08,14:20:00,DRY,2.53,18.67,17.7,776.00,893.0
2019-10-08,14:25:00,DRY,3.60,18.20,18.0,776.00,885.0
2019-10-08,14:30:00,DRY,1.93,18.23,18.7,776.00,877.1
2019-10-08,14:35:00,DRY,2.30,18.75,15.5,776.00,867.2
2019-10-08,14:40:00,DRY,3.97,18.30,18.7,776.00,855.8
2019-10-08,14:45:00,DRY,2.90,18.15,16.0,776.00,846.5
2019-10-08,14:50:00,DRY,2.07,18.27,17.7,776.00,836.4
2019-10-08,14:55:00,DRY,2.70,18.70,17.0,776.00,825.1
2019-10-08,15:00:00,DRY,1.93,18.73,18.7,776.00,815.1
2019-10-08,15:05:00,DRY,2.30,18.35,18.0,776.00,802.3
2019-10-08,15:10:00,DRY,2.97,18.77,19.0,776.00,790.2
2019-10-08,15:15:00,DRY,4.40,18.40,19.0,776.00,778.2
2019-10-08,15:20:00,DRY,1.73,18.43,16.0,776.00,764.3
2019-10-08,15:25:00,DRY,2.65,18.40,18.5,776.00,749.8
2019-10-08,15:30:00,DRY,4.33,18.37,15.3,776.00,735.8
2019-10-08,15:35:00,DRY,2.40,18.30,16.5,776.00,716.7
2019-10-08,15:40:00,DRY,3.33,18.30,15.7,776.00,703.2
2019-10-08,15:45:00,DRY,3.75,18.45,17.5,776.00,685.9
2019-10-08,15:50:00,DRY,2.07,18.50,19.3,776.00,670.8
2019-10-08,15:55:00,DRY,1.45,18.30,20.5,776.00,653.8
2019-10-08,16:00:00,DRY,3.63,18.20,18.3,776.00,636.1
2019-10-08,16:05:00,DRY,3.55,18.40,18.0,776.00,618.6
2019-10-08,16:10:00,DRY,2.27,18.37,19.7,776.00,601.4
2019-10-08,16:15:00,DRY,1.90,18.40,18.0,776.00,584.8
2019-10-08,16:20:00,DRY,1.63,18.03,18.3,776.00,566.8
2019-10-08,16:25:00,DRY,2.20,17.50,20.0,776.00,548.0
2019-10-08,16:30:00,DRY,2.13,17.10,20.0,776.00,528.3
2019-10-08,16:35:00,DRY,1.45,17.75,20.0,776.00,512.4
2019-10-08,16:40:00,DRY,1.57,17.77,19.3,776.00,491.2
2019-10-08,16:45:00,DRY,2.35,17.70,19.0,776.00,471.2
2019-10-08,16:50:00,DRY,1.53,17.80,18.3,776.00,452.2
2019-10-08,16:55:00,DRY,1.10,17.75,18.0,776.00,431.6
2019-10-08,17:00:00,DRY,3.00,17.50,18.3,776.00,410.6
2019-10-08,17:05:00,DRY,4.10,17.50,17.0,776.00,390.3
2019-10-08,17:10:00,DRY,3.00,17.33,17.3,776.00,369.5
2019-10-08,17:15:00,DRY,1.75,17.35,17.0,776.00,348.5
2019-10-08,17:20:00,DRY,2.53,17.63,16.7,776.00,328.2
2019-10-08,17:25:00,DRY,1.90,17.30,17.5,776.00,306.5
2019-10-08,17:30:00,DRY,1.73,16.70,18.0,776.00,286.0
2019-10-08,17:35:00,DRY,1.70,16.60,18.0,776.00,263.6
2019-10-08,17:40:00,DRY,2.27,16.63,18.7,776.00,242.2
2019-10-08,17:45:00,DRY,2.50,16.35,18.0,776.00,220.6
2019-10-08,17:50:00,DRY,2.57,16.27,17.7,776.00,199.8
2019-10-08,17:55:00,DRY,2.75,16.50,16.5,776.00,180.6
2019-10-08,18:00:00,DRY,1.70,16.47,15.7,776.00,162.2
2019-10-08,18:05:00,DRY,2.65,16.30,15.5,776.00,143.6
2019-10-08,18:10:00,DRY,2.73,15.63,15.0,776.00,123.3
2019-10-08,18:15:00,DRY,2.55,15.35,15.0,776.00,100.6
2019-10-08,18:20:00,DRY,2.30,15.30,15.0,776.00,36.8
2019-10-08,18:25:00,DRY,2.20,15.55,15.0,776.00,27.4
2019-10-08,18:30:00,DRY,2.53,15.30,15.0,776.00,23.2
2019-10-08,18:35:00,DRY,2.20,15.05,16.0,776.00,19.5
2019-10-08,18:40:00,DRY,2.60,14.87,16.0,776.00,15.6